Location: Holcomb Observatory and Planetarium
(39.8415°N, 86.1714°W)
Time: 23:46:28
(UTC-04:00)

Hubble Space Telescope - Visible Passes

Search period start: 27 June 2016 00:00
Search period end: 07 July 2016 00:00
Orbit: 539 x 543 km, 28.5° (Epoch: 27 June)

Date Brightness Start Highest point End Pass type
(mag) Time Alt. Az. Time Alt. Az. Time Alt. Az.
30 Jun 3.1 23:03:22 10° SSW 23:03:43 11° SSW 23:03:43 11° SSW visible
01 Jul 2.7 22:53:22 10° SSW 22:54:58 15° S 22:54:58 15° S visible
02 Jul 2.5 22:43:27 10° SW 22:46:01 16° S 22:46:01 16° S visible
03 Jul 2.4 22:33:36 10° SW 22:36:17 17° S 22:36:56 16° SSE visible
04 Jul 2.5 22:23:48 10° SW 22:26:29 17° S 22:27:45 15° SSE visible
05 Jul 2.6 22:14:04 10° SW 22:16:40 16° S 22:18:30 13° SSE visible
06 Jul 2.7 22:04:22 10° SW 22:06:51 15° S 22:09:11 10° SSE visible
